Waarnemingen

Advertentie
Mijn weer
Barcelona/Aeropuerto, Spanje (8181): temperatuur & dauwpunt: 05.12.2017 10:00:00 - 11.12.2017 10:00:00 (CET)Barcelona/Aeropuerto, Spanje (8181): windsnelheid: 05.12.2017 10:00:00 - 11.12.2017 10:00:00 (CET)Barcelona/Aeropuerto, Spanje (8181): windrichting: 05.12.2017 10:00:00 - 11.12.2017 10:00:00 (CET)Barcelona/Aeropuerto, Spanje (8181): luchtdruk: 05.12.2017 10:00:00 - 11.12.2017 10:00:00 (CET)Barcelona/Aeropuerto, Spanje (8181): zicht: 05.12.2017 10:00:00 - 11.12.2017 10:00:00 (CET)
Datum & Tijd tt [°C] td [°C] ff [km/u] ff [kn] dd ppp [hPa] vv [km]
11.12.2017 10:00:00 - - - - - - -
11.12.2017 09:00:00 16,8 13,1 35 19 ZW 989,2 6
11.12.2017 08:00:00 16,8 12,3 35 19 ZW 989,5 8
11.12.2017 07:00:00 16,2 12,0 41 22 ZW 989,9 7
11.12.2017 06:00:00 15,9 11,9 39 21 WZW 990,4 7
11.12.2017 05:00:00 16,3 11,0 39 21 WZW 990,9 10
11.12.2017 04:00:00 15,7 11,7 48 26 WZW 991,6 8
11.12.2017 03:00:00 15,5 12,1 37 20 W 993,2 11
11.12.2017 02:00:00 15,1 11,5 35 19 W 994,0 13
11.12.2017 01:00:00 15,0 11,4 29 16 W 995,8 14
11.12.2017 00:00:00 11,1 8,9 9 5 W 996,9 14
10.12.2017 23:00:00 13,5 11,5 9 5 W 998,1 13
10.12.2017 22:00:00 14,7 12,7 15 8 WZW 1000,0 10
10.12.2017 21:00:00 14,7 12,4 11 6 WZW 1001,0 13
10.12.2017 20:00:00 15,0 12,3 13 7 WZW 1001,9 13
10.12.2017 19:00:00 15,1 11,7 18 10 WZW 1003,2 20
10.12.2017 18:00:00 15,3 9,6 18 10 W 1003,8 17
10.12.2017 17:00:00 16,0 11,6 22 12 WZW 1004,3 18
10.12.2017 16:00:00 16,9 10,5 24 13 WZW 1005,7 25
10.12.2017 15:00:00 17,1 10,5 15 8 WZW 1006,8 17
10.12.2017 14:00:00 17,2 8,2 22 12 WZW 1007,9 27
10.12.2017 13:00:00 17,2 8,1 28 15 ZW 1008,7 25
10.12.2017 12:00:00 17,8 7,1 28 15 W 1010,6 16
10.12.2017 11:00:00 16,1 7,5 28 15 W 1011,8 14
10.12.2017 10:00:00 11,6 6,7 16 9 NNW 1012,3 30
10.12.2017 09:00:00 9,3 5,5 4 2 N 1012,4 30
10.12.2017 08:00:00 8,9 5,1 16 9 N 1012,9 21
10.12.2017 07:00:00 8,6 5,3 13 7 NNO 1013,2 15
10.12.2017 06:00:00 8,7 5,3 13 7 N 1013,7 15
10.12.2017 05:00:00 9,1 6,2 11 6 N 1014,6 16
10.12.2017 04:00:00 9,0 6,8 11 6 N 1015,6 17
10.12.2017 03:00:00 11,1 9,4 9 5 W 1016,7 24
10.12.2017 02:00:00 11,6 8,3 22 12 W 1017,5 17
10.12.2017 01:00:00 8,8 3,8 5 3 WNW 1019,0 17
10.12.2017 00:00:00 8,2 3,4 4 2 N 1020,0 17
09.12.2017 23:00:00 7,9 3,5 5 3 N 1020,6 17
09.12.2017 22:00:00 7,4 3,4 8 4 N 1021,2 19
09.12.2017 21:00:00 7,4 3,1 4 2 N 1021,4 19
09.12.2017 20:00:00 8,7 3,6 2 1 WNW 1021,4 30
09.12.2017 19:00:00 10,6 4,3 8 4 W 1021,7 30
09.12.2017 18:00:00 11,0 4,2 13 7 WZW 1021,9 30
09.12.2017 17:00:00 11,4 3,7 9 5 W 1022,0 30
09.12.2017 16:00:00 11,7 5,7 8 4 ZZO 1022,0 25
09.12.2017 15:00:00 11,7 6,0 8 4 Z 1022,2 30
09.12.2017 14:00:00 12,5 5,9 11 6 ZZO 1022,8 30
09.12.2017 13:00:00 11,8 2,5 5 3 NNO 1023,3 20
09.12.2017 12:00:00 9,8 2,0 18 10 NNO 1023,7 21
09.12.2017 11:00:00 7,2 1,7 21 11 N 1023,6 22
09.12.2017 10:00:00 5,9 1,6 24 13 N 1022,9 20
09.12.2017 09:00:00 5,6 1,1 22 12 N 1022,4 13
09.12.2017 08:00:00 5,5 1,4 21 11 N 1021,9 18
09.12.2017 07:00:00 5,3 1,4 22 12 N 1021,5 13
09.12.2017 06:00:00 5,3 1,6 18 10 N 1021,0 16
09.12.2017 05:00:00 5,5 1,8 21 11 N 1020,8 16
09.12.2017 04:00:00 5,8 1,7 18 10 N 1020,8 13
09.12.2017 03:00:00 5,7 1,4 18 10 N 1020,4 16
09.12.2017 02:00:00 5,9 1,4 21 11 N 1020,7 15
09.12.2017 01:00:00 6,7 1,8 16 9 N 1021,0 15
09.12.2017 00:00:00 8,0 2,7 18 10 N 1021,0 15
08.12.2017 23:00:00 8,3 2,9 16 9 N 1021,1 15
08.12.2017 22:00:00 9,0 3,2 15 8 N 1021,5 17
08.12.2017 21:00:00 9,1 3,3 13 7 N 1021,6 15
08.12.2017 20:00:00 9,1 3,9 4 2 NNW 1021,6 10
08.12.2017 19:00:00 10,0 3,3 8 4 N 1021,7 10
08.12.2017 18:00:00 10,3 2,9 15 8 N 1021,7 12
08.12.2017 17:00:00 11,0 2,6 18 10 N 1021,4 17
08.12.2017 16:00:00 11,9 2,6 21 11 N 1021,0 16
08.12.2017 15:00:00 10,8 2,1 16 9 NNO 1020,9 17
08.12.2017 14:00:00 10,1 1,5 22 12 N 1021,3 17
08.12.2017 13:00:00 9,9 1,0 28 15 N 1022,0 21
08.12.2017 12:00:00 9,7 0,8 24 13 N 1022,2 17
08.12.2017 11:00:00 9,8 0,4 18 10 N 1022,9 18
08.12.2017 10:00:00 7,6 -0,1 18 10 N 1023,2 20
08.12.2017 09:00:00 6,1 -0,4 15 8 N 1023,3 14
08.12.2017 08:00:00 5,8 -0,5 22 12 N 1023,7 19
08.12.2017 07:00:00 5,9 -0,4 24 13 N 1023,8 20
08.12.2017 06:00:00 6,1 -0,9 21 11 N 1024,4 20
08.12.2017 05:00:00 6,3 -0,7 21 11 N 1024,7 23
08.12.2017 04:00:00 6,6 -0,2 22 12 N 1025,3 20
08.12.2017 03:00:00 6,6 -0,2 16 9 N 1025,8 15
08.12.2017 02:00:00 7,0 -0,2 9 5 N 1026,1 18
08.12.2017 01:00:00 7,2 0,8 16 9 N 1026,7 20
08.12.2017 00:00:00 7,8 1,2 18 10 N 1027,4 21
07.12.2017 23:00:00 8,3 2,1 11 6 N 1027,8 13
07.12.2017 22:00:00 9,1 3,5 13 7 N 1028,0 23
07.12.2017 21:00:00 10,5 4,4 8 4 NW 1028,2 16
07.12.2017 20:00:00 11,3 5,6 5 3 NNW 1028,4 19
07.12.2017 19:00:00 12,1 7,1 13 7 W 1028,3 30
07.12.2017 18:00:00 12,0 7,5 11 6 W 1028,2 25
07.12.2017 17:00:00 13,6 8,0 13 7 W 1028,4 25
07.12.2017 16:00:00 14,7 8,3 21 11 WZW 1028,6 22
07.12.2017 15:00:00 14,7 8,4 21 11 WZW 1028,9 28
07.12.2017 14:00:00 15,0 9,0 24 13 ZW 1029,4 29
07.12.2017 13:00:00 14,1 7,8 8 4 N 1030,3 19
07.12.2017 12:00:00 11,9 3,4 13 7 N 1031,1 21
07.12.2017 11:00:00 9,2 2,1 15 8 N 1031,8 22
07.12.2017 10:00:00 7,0 1,3 18 10 N 1031,6 23
07.12.2017 09:00:00 5,0 0,6 21 11 N 1031,4 28
07.12.2017 08:00:00 4,6 0,5 21 11 N 1031,1 22
07.12.2017 07:00:00 4,6 0,7 21 11 N 1031,0 21
07.12.2017 06:00:00 4,5 0,8 21 11 N 1031,1 21
07.12.2017 05:00:00 4,9 0,7 22 12 N 1031,3 24
07.12.2017 04:00:00 5,0 1,3 24 13 N 1031,7 21
07.12.2017 03:00:00 5,1 1,2 21 11 N 1031,9 20
07.12.2017 02:00:00 5,6 1,7 18 10 N 1032,0 18
07.12.2017 01:00:00 6,0 2,1 21 11 N 1032,5 24
07.12.2017 00:00:00 6,6 3,4 16 9 N 1033,0 19
06.12.2017 23:00:00 7,2 4,0 16 9 N 1032,9 18
06.12.2017 22:00:00 7,0 4,5 8 4 N 1033,0 12
06.12.2017 21:00:00 7,9 5,4 4 2 N 1033,0 12
06.12.2017 20:00:00 9,3 6,4 4 2 NW 1032,7 14
06.12.2017 19:00:00 10,7 7,2 8 4 WNW 1032,4 17
06.12.2017 18:00:00 11,5 7,4 13 7 WZW 1032,4 21
06.12.2017 17:00:00 13,4 7,6 15 8 WZW 1032,3 24
06.12.2017 16:00:00 14,5 7,8 16 9 WZW 1032,5 26
06.12.2017 15:00:00 14,8 7,3 18 10 WZW 1032,6 30
06.12.2017 14:00:00 14,3 8,0 11 6 ZZW 1033,2 30
06.12.2017 13:00:00 12,8 3,6 5 3 NNO 1034,0 15
06.12.2017 12:00:00 10,2 0,9 13 7 N 1034,9 17
06.12.2017 11:00:00 7,1 -0,6 18 10 N 1035,6 28
06.12.2017 10:00:00 4,7 -1,5 22 12 N 1035,3 23
06.12.2017 09:00:00 3,0 -1,8 24 13 N 1035,1 22
06.12.2017 08:00:00 2,5 -2,0 26 14 N 1034,9 24
06.12.2017 07:00:00 2,7 -1,7 26 14 N 1034,9 26
06.12.2017 06:00:00 2,8 -1,4 24 13 N 1034,9 29
06.12.2017 05:00:00 3,1 -1,1 22 12 N 1034,9 30
06.12.2017 04:00:00 3,3 -1,1 24 13 N 1035,2 30
06.12.2017 03:00:00 3,6 -0,8 24 13 N 1035,3 30
06.12.2017 02:00:00 4,4 -0,2 22 12 N 1035,3 30
06.12.2017 01:00:00 5,1 0,3 22 12 N 1035,6 30
06.12.2017 00:00:00 6,0 0,5 21 11 N 1035,8 23
05.12.2017 23:00:00 6,6 1,1 21 11 N 1035,7 24
05.12.2017 22:00:00 7,2 1,5 16 9 N 1035,8 25
05.12.2017 21:00:00 7,4 2,3 15 8 N 1035,7 14
05.12.2017 20:00:00 7,7 3,2 13 7 N 1035,5 14
05.12.2017 19:00:00 8,0 3,3 8 4 NNW 1035,2 23
05.12.2017 18:00:00 10,5 3,7 9 5 W 1034,9 30
05.12.2017 17:00:00 12,9 4,1 4 2 WZW 1034,7 30
05.12.2017 16:00:00 13,4 4,1 8 4 ZW 1034,8 30
05.12.2017 15:00:00 13,7 6,0 8 4 ZZW 1034,8 21
05.12.2017 14:00:00 13,3 4,2 4 2 WNW 1035,4 25
05.12.2017 13:00:00 11,6 2,3 13 7 N 1035,9 17
05.12.2017 12:00:00 9,8 1,7 22 12 N 1036,5 20
05.12.2017 11:00:00 7,6 1,0 24 13 N 1037,0 30
05.12.2017 10:00:00 5,4 -0,4 26 14 N 1036,6 25

tt = temperatuur
td = dauwpunt
ff = windsnelheid
dd = windrichting
ppp = luchtdruk
vv = zicht

Weerstations in de omgeving